CW5581 Weather Reports


Display with metric or nautical units.
time (UTC)temp
F
wind
direction
speed
MPH
gust
MPH
rain 1hr
in
rain 24hr
in
rain mn
in
humidity
%
barometer
mb
20260505041534 58 296 1.0 5.0 0.00 0.00 0.00 72 1010.7
20260505040036 59 299 2.0 5.0 0.00 0.00 0.00 70 1010.6
20260505034550 60 266 2.0 4.0 0.00 0.00 0.00 68 1010.5
20260505033055 61 271 2.0 6.0 0.00 0.00 0.00 66 1010.3
20260505031557 62 286 1.0 4.0 0.00 0.00 0.00 63 1010.2
20260505030050 64 278 2.0 6.0 0.00 0.00 0.00 60 1010.0
20260505024550 65 260 3.0 8.0 0.00 0.00 0.00 57 1009.7
20260505023042 67 286 2.0 4.0 0.00 0.00 0.00 52 1009.8
20260505021538 68 237 3.0 7.0 0.00 0.00 0.00 48 1009.8
20260505020036 70 214 3.0 10.0 0.00 0.00 0.00 49 1009.7
20260505014524 72 216 3.0 7.0 0.00 0.00 0.00 48 1009.8
20260505013016 74 219 4.0 7.0 0.00 0.00 0.00 47 1009.8
20260505011511 74 206 3.0 8.0 0.00 0.00 0.00 47 1009.7
20260505010005 75 288 2.0 10.0 0.00 0.00 0.00 47 1009.7
20260505004552 75 284 3.0 8.0 0.00 0.00 0.00 48 1009.7
20260505003054 74 188 2.0 8.0 0.00 0.00 0.00 48 1009.9
20260505001543 75 184 4.0 9.0 0.00 0.00 0.00 50 1009.7
20260505000038 74 247 5.0 12.0 0.00 0.00 0.00 52 1009.6
20260504234537 75 296 4.0 13.0 0.00 0.00 0.00 51 1009.6
20260504233042 76 246 3.0 11.0 0.00 0.00 0.00 49 1009.7
20260504231539 76 219 4.0 10.0 0.00 0.00 0.00 49 1009.7
20260504230028 74 326 3.0 12.0 0.00 0.00 0.00 52 1009.7
20260504224513 73 292 4.0 10.0 0.00 0.00 0.00 52 1009.9
20260504223012 74 237 7.0 11.0 0.00 0.00 0.00 47 1010.0
20260504221503 74 238 2.0 11.0 0.00 0.00 0.00 46 1010.0
20260504220058 74 234 3.0 12.0 0.00 0.00 0.00 47 1010.1
20260504214554 74 262 4.0 12.0 0.00 0.00 0.00 46 1010.2
20260504213039 76 302 5.0 15.0 0.00 0.00 0.00 44 1010.2
20260504211527 78 312 4.0 11.0 0.00 0.00 0.00 43 1010.4
20260504210017 79 263 4.0 11.0 0.00 0.00 0.00 43 1010.4
20260504204508 75 257 4.0 11.0 0.00 0.00 0.00 46 1010.6
20260504203106 76 278 0.0 6.0 0.00 0.00 0.00 46 1010.6
20260504201546 75 241 1.0 9.0 0.00 0.00 0.00 46 1010.7
20260504200057 74 312 3.0 11.0 0.00 0.00 0.00 48 1010.8
20260504194600 75 281 5.0 9.0 0.00 0.00 0.00 43 1010.8
20260504193042 74 215 3.0 10.0 0.00 0.00 0.00 46 1010.8
20260504191531 73 287 4.0 11.0 0.00 0.00 0.00 45 1010.9
20260504190021 75 213 2.0 9.0 0.00 0.00 0.00 43 1010.9
20260504184509 78 270 2.0 8.0 0.00 0.00 0.00 43 1011.0
20260504183059 76 278 2.0 6.0 0.00 0.00 0.00 45 1011.0
20260504181549 76 277 2.0 9.0 0.00 0.00 0.00 49 1010.9
20260504180032 75 243 2.0 6.0 0.00 0.00 0.00 48 1010.8
20260504174515 76 212 2.0 6.0 0.00 0.00 0.00 44 1010.8
20260504173004 76 269 3.0 8.0 0.00 0.00 0.00 45 1010.8
20260504171513 74 228 2.0 4.0 0.00 0.00 0.00 47 1010.8
20260504081514 58 96 0.0 3.0 0.00 0.00 0.00 67 1009.7